�N����,����,�~����,�C��,���x,�C��,����,���ϕ���,�ő�u�ԕ���,�ő厞����,���˗�,�I�_���x,�n�����x,�ő啗���N��,DTYPE
"22/03/12","00:10",0.0,8.3,77.3,1014.0,315.9,3.4,4.7,315.6,0.00,4.6,9.6,"00:07:56",1
"22/03/12","00:20",0.0,8.3,76.9,1014.2,308.9,3.0,4.4,316.3,0.00,4.5,9.4,"00:13:04",1
"22/03/12","00:30",0.0,8.0,77.2,1014.2,314.6,2.3,2.7,316.3,0.00,4.3,9.4,"00:28:00",1
"22/03/12","00:40",0.0,8.2,77.4,1014.2,323.5,2.6,3.5,305.2,0.00,4.5,9.3,"00:30:56",1
"22/03/12","00:50",0.0,8.0,77.3,1014.0,303.8,1.5,3.5,316.6,0.00,4.3,9.3,"00:40:16",1
"22/03/12","01:00",0.0,7.3,77.9,1014.2,336.9,1.7,2.8,331.4,0.00,3.7,9.2,"00:55:04",1
"22/03/12","01:10",0.0,7.2,79.3,1013.8,333.1,1.6,2.7,318.5,0.00,3.9,9.0,"01:02:08",1
"22/03/12","01:20",0.0,7.6,80.1,1013.8,347.0,1.1,2.1,342.7,0.00,4.4,9.3,"01:10:56",1
"22/03/12","01:30",0.0,7.4,80.6,1013.8,306.7,1.8,3.2,311.3,0.00,4.3,9.1,"01:25:36",1
"22/03/12","01:40",0.0,7.3,81.4,1014.0,299.3,2.1,2.8,332.7,0.00,4.4,9.1,"01:39:52",1
"22/03/12","01:50",0.0,7.2,81.8,1014.0,312.4,2.1,2.8,326.2,0.00,4.3,9.2,"01:43:12",1
"22/03/12","02:00",0.0,7.2,82.3,1014.0,297.6,0.7,1.6,271.5,0.00,4.4,9.1,"01:52:24",1
"22/03/12","02:10",0.0,7.4,82.7,1014.0,271.3,0.7,1.3,249.4,0.00,4.7,9.0,"02:03:04",1
"22/03/12","02:20",0.0,7.7,82.9,1014.0,305.5,1.7,2.6,328.3,0.00,5.0,8.9,"02:16:32",1
"22/03/12","02:30",0.0,7.6,83.1,1013.5,319.5,1.6,2.2,334.9,0.00,5.0,8.9,"02:20:56",1
"22/03/12","02:40",0.0,7.5,83.3,1014.0,304.8,1.3,2.1,323.8,0.00,4.9,9.1,"02:30:24",1
"22/03/12","02:50",0.0,7.5,83.4,1013.8,286.6,0.5,1.6,313.8,0.00,4.9,9.0,"02:49:52",1
"22/03/12","03:00",0.0,7.5,83.7,1013.8,294.1,1.7,2.2,312.4,0.00,5.0,9.0,"02:51:52",1
"22/03/12","03:10",0.0,7.7,83.8,1013.8,293.8,1.3,2.1,328.3,0.00,5.2,9.0,"03:09:12",1
"22/03/12","03:20",0.0,7.8,83.8,1013.8,318.8,1.5,1.9,320.0,0.00,5.3,8.8,"03:13:04",1
"22/03/12","03:30",0.0,7.7,83.9,1014.0,294.5,1.1,1.4,276.7,0.00,5.2,8.8,"03:20:08",1
"22/03/12","03:40",0.0,7.9,84.1,1014.0,312.7,0.7,1.3,302.1,0.00,5.4,8.7,"03:38:40",1
"22/03/12","03:50",0.0,7.9,84.3,1013.8,297.4,1.5,1.8,310.9,0.00,5.5,8.9,"03:44:00",1
"22/03/12","04:00",0.0,7.9,84.6,1014.2,322.9,1.1,1.4,319.4,0.00,5.5,8.9,"03:53:20",1
"22/03/12","04:10",0.0,8.0,84.8,1014.0,305.2,1.3,1.9,300.1,0.00,5.6,8.8,"04:05:44",1
"22/03/12","04:20",0.0,8.0,85.1,1014.2,304.5,2.0,2.9,322.4,0.00,5.7,8.6,"04:19:44",1
"22/03/12","04:30",0.0,8.1,85.3,1014.2,293.9,1.5,2.2,312.4,0.00,5.8,8.8,"04:20:08",1
"22/03/12","04:40",0.0,8.1,85.3,1014.5,296.9,1.6,2.1,263.0,0.00,5.8,8.8,"04:31:04",1
"22/03/12","04:50",0.0,8.2,85.1,1014.2,315.8,1.6,2.0,332.3,0.00,5.9,8.9,"04:40:32",1
"22/03/12","05:00",0.0,8.1,85.1,1014.7,306.8,1.7,1.9,319.4,0.00,5.8,8.8,"04:53:20",1
"22/03/12","05:10",0.0,8.3,85.1,1014.2,279.1,1.7,2.0,300.0,0.00,6.0,8.8,"05:01:28",1
"22/03/12","05:20",0.0,8.5,84.7,1014.5,290.8,1.8,2.8,305.1,0.00,6.1,8.8,"05:12:24",1
"22/03/12","05:30",0.0,8.6,84.3,1014.9,331.8,1.1,1.8,311.8,0.00,6.1,8.7,"05:20:40",1
"22/03/12","05:40",0.0,8.3,84.2,1014.9,320.7,1.3,2.4,317.0,0.00,5.8,8.6,"05:34:24",1
"22/03/12","05:50",0.0,8.1,84.5,1015.2,280.3,1.1,1.7,286.5,0.00,5.7,8.8,"05:49:36",1
"22/03/12","06:00",0.0,8.4,84.8,1014.9,315.4,1.6,2.2,311.0,0.00,6.0,8.8,"05:50:16",1
"22/03/12","06:10",0.0,8.2,84.9,1014.9,327.6,1.5,2.6,323.5,0.00,5.9,8.7,"06:04:48",1
"22/03/12","06:20",0.0,8.0,85.2,1015.2,320.8,1.7,2.1,317.1,0.00,5.7,8.7,"06:18:56",1
"22/03/12","06:30",0.0,7.9,85.7,1015.4,290.5,1.7,3.3,311.4,0.00,5.7,8.7,"06:28:40",1
"22/03/12","06:40",0.0,8.0,85.8,1015.2,290.0,1.8,2.2,308.1,0.00,5.8,8.6,"06:36:40",1
"22/03/12","06:50",0.0,8.2,85.7,1015.2,314.6,2.2,3.4,333.9,0.00,6.0,8.7,"06:45:20",1
"22/03/12","07:00",0.0,8.1,85.8,1014.9,322.2,1.7,2.7,325.0,0.00,5.9,8.6,"06:58:00",1
"22/03/12","07:10",0.0,7.9,85.9,1015.2,319.7,1.7,2.4,316.0,0.00,5.7,8.6,"07:09:44",1
"22/03/12","07:20",0.0,7.9,86.4,1015.4,324.9,2.0,3.1,310.4,0.01,5.8,8.6,"07:19:20",1
"22/03/12","07:30",0.0,8.2,86.7,1015.4,326.6,1.3,2.1,334.5,0.02,6.2,8.6,"07:26:40",1
"22/03/12","07:40",0.0,8.4,86.8,1015.4,287.1,1.1,1.9,271.7,0.03,6.4,8.6,"07:32:08",1
"22/03/12","07:50",0.0,8.8,87.1,1015.2,280.6,0.2,0.8,259.7,0.05,6.8,8.6,"07:45:28",1
"22/03/12","08:00",0.0,9.3,87.0,1015.4,303.6,1.2,2.2,321.5,0.05,7.3,8.5,"07:54:56",1
"22/03/12","08:10",0.0,9.5,86.8,1015.2,322.4,1.3,2.4,317.8,0.06,7.5,8.6,"08:07:36",1
"22/03/12","08:20",0.0,10.2,86.6,1015.6,307.7,1.1,1.9,334.5,0.10,8.1,8.7,"08:10:32",1
"22/03/12","08:30",0.0,10.7,85.6,1016.1,320.2,1.5,2.8,337.0,0.14,8.4,8.6,"08:26:48",1
"22/03/12","08:40",0.0,11.6,82.7,1016.4,290.1,0.8,1.6,313.5,0.15,8.8,8.8,"08:32:24",1
"22/03/12","08:50",0.0,11.9,80.3,1016.4,232.6,0.3,1.0,118.8,0.16,8.7,8.7,"08:48:56",1
"22/03/12","09:00",0.0,12.8,77.2,1016.6,218.2,0.6,1.2,192.4,0.21,9.0,8.7,"08:57:52",1
"22/03/12","09:10",0.0,13.7,73.9,1016.4,310.9,0.3,0.9,124.3,0.26,9.2,8.7,"09:02:56",1
"22/03/12","09:20",0.0,14.2,69.6,1016.6,223.7,0.5,1.1,174.5,0.26,8.8,8.7,"09:11:44",1
"22/03/12","09:30",0.0,14.4,66.9,1016.4,105.9,0.8,1.8,164.3,0.29,8.4,8.7,"09:20:24",1
"22/03/12","09:40",0.0,14.7,67.1,1016.1,151.5,0.8,1.9,125.4,0.34,8.7,8.8,"09:37:20",1
"22/03/12","09:50",0.0,15.3,66.3,1016.1,323.0,0.7,1.8,349.3,0.37,9.1,8.9,"09:46:56",1
"22/03/12","10:00",0.0,15.7,64.2,1015.9,106.1,0.8,2.0,114.9,0.38,9.0,8.9,"09:58:32",1
"22/03/12","10:10",0.0,16.1,63.7,1015.9,124.8,0.8,2.4,122.6,0.40,9.3,8.9,"10:04:56",1
"22/03/12","10:20",0.0,16.3,62.4,1015.6,48.1,0.8,2.5,112.0,0.37,9.1,9.1,"10:15:28",1
"22/03/12","10:30",0.0,16.2,61.9,1015.6,103.3,1.1,2.4,123.6,0.33,8.9,9.0,"10:28:00",1
"22/03/12","10:40",0.0,16.7,62.5,1015.6,167.1,1.3,2.4,98.0,0.44,9.6,9.2,"10:30:48",1
"22/03/12","10:50",0.0,17.0,61.4,1015.2,235.1,1.2,2.6,197.3,0.45,9.6,9.4,"10:42:16",1
"22/03/12","11:00",0.0,17.0,61.6,1015.2,152.1,1.2,2.7,120.7,0.45,9.6,9.4,"10:55:20",1
"22/03/12","11:10",0.0,17.4,62.2,1014.9,168.2,1.3,2.7,180.4,0.47,10.1,9.5,"11:03:28",1
"22/03/12","11:20",0.0,17.3,61.6,1015.2,115.8,1.6,3.2,117.5,0.48,9.9,9.6,"11:14:16",1
"22/03/12","11:30",0.0,18.2,60.0,1014.9,149.2,1.3,3.2,127.7,0.50,10.4,9.6,"11:27:36",1
"22/03/12","11:40",0.0,18.7,60.0,1014.7,147.3,2.0,4.7,122.3,0.52,10.8,9.7,"11:37:28",1
"22/03/12","11:50",0.0,19.7,56.6,1014.5,202.5,2.0,3.5,204.1,0.54,10.9,10.0,"11:43:36",1
"22/03/12","12:00",0.0,19.9,54.9,1014.5,215.9,2.6,4.7,198.7,0.54,10.6,9.9,"11:54:08",1
"22/03/12","12:10",0.0,19.9,52.9,1014.5,272.7,2.3,4.4,332.5,0.55,10.1,10.1,"12:05:36",1
"22/03/12","12:20",0.0,19.9,51.3,1014.0,252.0,2.7,5.5,240.9,0.56,9.6,10.3,"12:17:04",1
"22/03/12","12:30",0.0,20.2,51.6,1013.5,246.2,3.0,4.9,234.6,0.56,10.0,10.4,"12:27:20",1
"22/03/12","12:40",0.0,20.6,50.5,1013.8,224.0,2.3,4.3,254.3,0.55,10.0,10.4,"12:36:56",1
"22/03/12","12:50",0.0,21.2,49.1,1013.5,249.4,2.3,5.0,243.5,0.54,10.1,10.7,"12:42:56",1
"22/03/12","13:00",0.0,20.8,48.0,1013.5,240.3,3.2,6.4,232.5,0.53,9.4,10.7,"12:58:48",1
"22/03/12","13:10",0.0,20.9,49.5,1013.5,249.3,3.0,5.4,245.3,0.47,10.0,10.7,"13:05:52",1
"22/03/12","13:20",0.0,20.9,48.6,1013.0,238.3,2.6,5.9,230.5,0.30,9.7,11.0,"13:19:28",1
"22/03/12","13:30",0.0,20.7,47.8,1013.0,258.0,2.1,4.5,275.0,0.30,9.3,10.9,"13:27:28",1
"22/03/12","13:40",0.0,21.5,46.9,1012.3,248.8,2.3,5.1,250.9,0.52,9.7,11.0,"13:35:52",1
"22/03/12","13:50",0.0,21.3,46.8,1012.1,145.0,1.8,3.1,119.3,0.24,9.5,11.2,"13:47:44",1
"22/03/12","14:00",0.0,20.7,49.1,1012.6,81.5,1.5,3.1,119.7,0.13,9.7,11.3,"13:50:56",1
"22/03/12","14:10",0.0,20.3,50.2,1012.1,40.7,2.1,5.2,352.2,0.13,9.6,11.4,"14:04:32",1
"22/03/12","14:20",0.0,19.9,51.6,1012.3,118.2,2.0,3.5,121.5,0.11,9.7,11.5,"14:12:24",1
"22/03/12","14:30",0.0,20.4,51.8,1012.6,153.4,1.8,3.7,138.9,0.21,10.2,11.5,"14:25:12",1
"22/03/12","14:40",0.0,20.1,51.8,1012.3,183.2,2.7,6.0,133.8,0.16,9.9,11.8,"14:32:56",1
"22/03/12","14:50",0.0,20.0,51.8,1012.3,198.1,3.0,4.9,198.1,0.15,9.8,11.8,"14:42:32",1
"22/03/12","15:00",0.0,19.8,52.6,1012.6,194.0,2.3,3.9,229.3,0.08,9.9,11.8,"14:51:44",1
"22/03/12","15:10",0.0,20.1,52.1,1012.8,187.1,1.6,3.9,187.9,0.11,10.0,11.7,"15:02:00",1
"22/03/12","15:20",0.0,19.7,53.6,1012.3,199.9,2.5,5.1,204.5,0.06,10.1,11.8,"15:13:44",1
"22/03/12","15:30",0.0,19.9,53.9,1012.3,198.8,1.2,4.4,117.5,0.07,10.3,11.7,"15:25:52",1
"22/03/12","15:40",0.0,19.7,52.9,1012.3,176.3,2.5,5.9,192.5,0.08,9.9,12.0,"15:32:48",1
"22/03/12","15:50",0.0,19.8,53.2,1012.3,168.6,1.7,4.4,185.5,0.07,10.1,11.9,"15:49:52",1
"22/03/12","16:00",0.0,20.3,53.1,1012.3,155.4,2.3,5.4,149.7,0.15,10.5,11.9,"15:51:28",1
"22/03/12","16:10",0.0,20.8,51.1,1012.1,160.4,1.7,3.5,132.5,0.19,10.4,11.9,"16:09:20",1
"22/03/12","16:20",0.0,21.2,49.0,1011.9,180.2,1.7,4.1,173.3,0.22,10.1,11.9,"16:17:36",1
"22/03/12","16:30",0.0,21.0,48.8,1011.9,195.2,1.7,3.7,181.0,0.15,9.9,11.9,"16:28:00",1
"22/03/12","16:40",0.0,20.7,50.0,1011.6,238.9,2.3,3.7,236.0,0.13,10.0,12.1,"16:36:56",1
"22/03/12","16:50",0.0,20.8,49.6,1011.9,245.2,2.3,3.7,250.4,0.16,9.9,12.2,"16:45:52",1
"22/03/12","17:00",0.0,20.7,50.2,1011.9,259.3,1.8,3.4,241.2,0.12,10.0,12.1,"16:50:48",1
"22/03/12","17:10",0.0,20.6,50.7,1011.6,233.4,1.5,4.4,215.9,0.09,10.1,12.0,"17:04:32",1
"22/03/12","17:20",0.0,20.1,52.7,1012.1,211.9,1.6,3.7,182.9,0.06,10.2,12.0,"17:19:52",1
"22/03/12","17:30",0.0,19.4,55.3,1011.9,187.4,2.3,4.9,203.5,0.04,10.3,12.1,"17:25:52",1
"22/03/12","17:40",0.0,19.1,56.4,1012.1,197.8,1.5,3.5,223.4,0.02,10.3,12.0,"17:33:20",1
"22/03/12","17:50",0.0,18.9,56.7,1012.1,280.1,0.3,0.9,264.9,0.01,10.2,12.3,"17:41:12",1
"22/03/12","18:00",0.0,18.5,58.0,1012.6,261.3,0.3,1.7,210.8,0.00,10.1,12.2,"17:58:56",1
"22/03/12","18:10",0.0,18.2,59.7,1012.6,326.7,0.8,1.4,346.0,0.00,10.3,12.2,"18:04:40",1
"22/03/12","18:20",0.0,17.6,62.3,1013.0,343.0,1.0,1.9,330.2,0.00,10.4,12.1,"18:19:12",1
"22/03/12","18:30",0.0,17.0,64.6,1013.0,333.5,1.2,2.0,340.3,0.00,10.3,12.1,"18:24:08",1
"22/03/12","18:40",0.0,16.8,65.9,1013.0,334.5,1.3,2.5,340.1,0.00,10.4,12.1,"18:37:52",1
"22/03/12","18:50",0.0,16.8,66.0,1013.5,318.7,1.2,1.9,332.6,0.00,10.5,12.2,"18:41:52",1
"22/03/12","19:00",0.0,16.5,67.2,1013.8,328.4,1.5,2.2,319.0,0.00,10.4,12.2,"18:54:24",1
"22/03/12","19:10",0.0,16.0,67.9,1014.0,325.0,1.0,1.8,343.9,0.00,10.1,12.1,"19:01:12",1
"22/03/12","19:20",0.0,15.8,68.7,1014.0,312.9,0.5,1.0,316.1,0.00,10.1,11.9,"19:19:36",1
"22/03/12","19:30",0.0,15.5,69.7,1014.0,334.2,1.1,2.2,342.0,0.00,10.0,12.0,"19:25:44",1
"22/03/12","19:40",0.0,15.5,71.0,1014.0,330.7,2.0,3.9,332.6,0.00,10.3,12.0,"19:38:16",1
"22/03/12","19:50",0.0,15.4,71.6,1014.2,334.2,2.0,3.2,344.6,0.00,10.3,12.0,"19:40:32",1
"22/03/12","20:00",0.0,15.4,72.1,1014.2,319.1,2.6,3.5,330.3,0.00,10.4,11.8,"19:50:56",1
"22/03/12","20:10",0.0,15.4,72.4,1014.5,299.9,2.0,2.7,315.2,0.00,10.5,12.0,"20:09:12",1
"22/03/12","20:20",0.0,15.3,72.4,1014.5,295.7,1.5,3.1,325.1,0.00,10.4,12.0,"20:10:16",1
"22/03/12","20:30",0.0,15.0,72.6,1014.9,292.2,1.2,1.8,278.5,0.00,10.2,11.9,"20:28:32",1
"22/03/12","20:40",0.0,14.7,73.3,1014.9,301.9,1.6,2.1,280.2,0.00,10.0,11.7,"20:33:04",1
"22/03/12","20:50",0.0,14.3,73.9,1015.2,325.2,1.0,1.6,305.2,0.00,9.8,11.7,"20:40:08",1
"22/03/12","21:00",0.0,14.0,74.9,1014.9,332.2,1.0,1.7,349.4,0.00,9.7,11.9,"20:55:04",1
"22/03/12","21:10",0.0,13.4,75.9,1015.2,321.0,1.0,1.3,325.8,0.00,9.3,11.7,"21:08:16",1
"22/03/12","21:20",0.0,12.8,77.3,1015.4,314.5,1.2,1.6,323.1,0.00,9.0,11.5,"21:14:10",1
"22/03/12","21:30",0.0,12.5,78.9,1015.2,322.5,1.3,1.8,319.9,0.00,9.0,11.6,"21:23:58",1
"22/03/12","21:40",0.0,12.4,80.3,1015.2,330.1,1.3,1.8,332.0,0.00,9.1,11.6,"21:36:48",1
"22/03/12","21:50",0.0,12.1,81.4,1015.4,302.5,1.3,1.7,320.9,0.00,9.1,11.6,"21:40:08",1
"22/03/12","22:00",0.0,12.4,82.5,1015.4,281.9,1.3,1.8,320.7,0.00,9.5,11.6,"21:50:50",1
"22/03/12","22:10",0.0,12.5,82.8,1015.2,297.5,1.3,1.7,320.0,0.00,9.7,11.5,"22:08:18",1
"22/03/12","22:20",0.0,12.0,83.0,1015.2,332.0,1.7,2.1,339.6,0.00,9.2,11.6,"22:14:24",1
"22/03/12","22:30",0.0,11.4,83.6,1015.4,328.4,1.2,1.8,332.6,0.00,8.8,11.4,"22:21:52",1
"22/03/12","22:40",0.0,11.2,84.2,1015.2,315.7,1.3,1.9,312.5,0.00,8.7,11.5,"22:34:28",1
"22/03/12","22:50",0.0,11.3,85.2,1015.4,307.0,1.3,2.2,314.0,0.00,8.9,11.3,"22:40:02",1
"22/03/12","23:00",0.0,12.1,85.6,1014.9,298.4,2.0,3.2,317.5,0.00,9.8,11.3,"22:59:58",1
"22/03/12","23:10",0.0,12.5,85.3,1015.2,304.2,1.6,2.5,319.3,0.00,10.1,11.3,"23:00:16",1
"22/03/12","23:20",0.0,12.5,85.1,1015.4,318.3,1.5,2.2,295.6,0.00,10.1,11.4,"23:19:28",1
"22/03/12","23:30",0.0,12.8,84.8,1014.9,276.8,1.2,2.2,260.2,0.00,10.3,11.2,"23:22:24",1
"22/03/12","23:40",0.0,12.9,84.1,1015.2,312.7,1.1,2.4,312.1,0.00,10.3,11.3,"23:33:38",1
"22/03/12","23:50",0.0,12.6,83.8,1014.9,332.4,1.2,2.2,338.8,0.00,10.0,11.2,"23:45:20",1
"22/03/12","24:00",0.0,12.2,83.9,1014.9,342.0,0.7,1.8,332.2,0.00,9.6,11.2,"23:50:08",1
